[[{"header":{"parameterUnit":"m.s-1","parameterCategory":1,"la1":30.2991,"la2":30.254,"lo1":-89.0895,"lo2":-89.0444,"dy":0.0017,"dx":0.0017,"nx":28,"ny":28,"refTime":"2023-11-10T09:00:00:Z","depth":0,"parameterNumber":2,"parameterNumberName":"U-component_of_WINDS"},"data":[0,0,0,0,0,0,0,0,0,0,0,0,0,0,0,0,0,0,0,0,0,0,0,0,0,0,0,0,0,0,0,0,0,0,0,0,0,0,0,0,0,0,0,0,0,0,0,0,0,0,0,0,0,0,0,0,0,0,-0.9344,-0.9346,0,-0.9504,-0.9505,-0.9507,-0.957,-0.957,-0.9569,-0.9569,-0.9736,-0.9741,-0.9746,0,0,0,0,0,0,0,0,0,0,0,0,0,-0.9095,-0.91,-0.9344,-0.9346,-0.9348,-0.9503,-0.9506,-0.9508,-0.957,-0.957,-0.9569,-0.9569,-0.9734,-0.974,-0.9746,0,0,0,0,0,0,0,0,0,0,0,0,0,-0.9224,-0.9101,-0.9343,-0.9397,-0.9404,-0.9503,-0.9506,-0.9508,-0.957,-0.957,-0.9569,-0.9568,-0.9733,-0.974,-0.9747,-0.9805,0,0,-0.9769,-0.9772,0,0,0,0,0,0,0,0,-0.9217,-0.9233,-0.9387,-0.9394,-0.9401,-0.9516,-0.9479,-0.9608,-0.957,-0.9507,-0.9569,-0.9568,-0.9664,-0.9677,-0.9708,-0.9813,-0.982,-0.977,-0.9774,-0.9777,-0.9779,0,0,0,0,0,0,0,-0.9208,-0.9227,-0.9407,-0.939,-0.9398,-0.9415,-0.9432,-0.9504,-0.9587,-0.9513,-0.9518,-0.9535,-0.9667,-0.9701,-0.9712,-0.9822,-0.977,-0.9776,-0.9781,-0.9783,-0.9984,-0.9984,0,0,0,0,0,0,-0.9189,-0.9219,-0.9402,-0.9412,-0.9305,-0.942,-0.9439,-0.948,-0.9587,-0.9602,-0.9536,-0.9538,-0.9689,-0.9704,-0.9719,-0.9794,-0.9777,-0.9784,-0.9788,-0.9983,-0.9984,-0.9985,0,0,0,0,0,0,-0.9184,-0.9205,-0.9396,-0.9317,-0.9342,-0.9425,-0.947,-0.9483,-0.9517,-0.9604,-0.962,-0.9555,-0.9689,-0.9708,-0.9783,-0.9801,-0.9787,-0.9794,-0.9982,-0.9983,-0.9984,-0.9945,0,0,0,0,0,0,-0.9176,-0.9203,-0.9225,-0.9317,-0.9346,-0.9456,-0.9471,-0.9487,-0.9529,-0.9533,-0.9626,-0.9641,-0.969,-0.9772,-0.979,-0.9811,-0.98,-0.998,-0.9982,-0.9984,-0.9945,-0.9945,-0.9945,0,0,0,0,0,-0.9167,-0.9208,-0.9226,-0.9247,-0.9375,-0.9457,-0.9474,-0.9529,-0.953,-0.9554,-0.961,-0.9638,-0.9796,-0.9779,-0.98,-0.9823,-0.9979,-0.9982,-0.9984,-0.9945,-0.9945,-0.9945,0,0,0,0,0,0,-0.9117,-0.9221,-0.9242,-0.9313,-0.9376,-0.9467,-0.9498,-0.9527,-0.9591,-0.9592,-0.9658,-0.9679,-0.9748,-0.9793,-0.9772,-0.9885,-0.989,-0.9896,-0.9853,-0.9854,-0.9853,-0.9841,-0.9806,0,0,0,0,0,-0.9114,-0.9171,-0.9259,-0.9314,-0.9344,-0.9415,-0.9453,-0.949,-0.9557,-0.9584,-0.9646,-0.9712,-0.9776,-0.9817,-0.9882,-0.9952,-0.9973,-0.9978,-0.9978,-0.9977,-0.9982,-1.0023,-1.0027,-0.9992,-0.9992,-0.9992,0,0,-0.9109,-0.9173,-0.9205,-0.9305,-0.9358,-0.9416,-0.9437,-0.9498,-0.9542,-0.9594,-0.9668,-0.9715,-0.9793,-0.9866,-0.9901,-0.9905,-0.9997,-0.998,-0.9979,-0.9984,-1.0026,-1.0029,-1.0032,-0.9993,-0.9993,-0.9993,0,0,-0.913,-0.9183,-0.9235,-0.9287,-0.9366,-0.9413,-0.9425,-0.9513,-0.9546,-0.9621,-0.9662,-0.9716,-0.9825,-0.9879,-0.9921,-0.9961,-0.999,-0.998,-0.998,-1.0019,-1.0022,-1.0024,-1.004,-1.0044,-0.9985,-0.9985,-0.9985,0,-0.9114,-0.9202,-0.9258,-0.9316,-0.9359,-0.9408,-0.9461,-0.951,-0.9606,-0.9635,-0.9639,-0.9777,-0.9833,-0.9919,-0.9929,-0.9961,-0.9978,-0.997,-1.0016,-1.002,-1.0023,-1.0039,-1.0044,-0.9983,-0.9983,-0.9984,-0.9984,0,-0.9179,-0.9239,-0.9271,-0.9362,-0.9409,-0.9464,-0.9529,-0.957,-0.9603,-0.965,-0.9726,-0.9795,-0.9874,-0.9897,-0.993,-0.9988,-0.9989,-1.0003,-1.0009,-1.0024,-1.0039,-1.0046,-0.9981,-0.9982,-0.9982,-0.9982,0,0,-0.9173,-0.9293,-0.9304,-0.9346,-0.9436,-0.9485,-0.9542,-0.9618,-0.9652,-0.9717,-0.9768,-0.986,-0.9874,-0.9921,-0.9961,-0.9995,-1.0023,-1.0006,-1.0009,-1.0007,-1.0093,-1.0081,-1.0087,-1.0043,-1.0044,-1.0045,-1.0086,0,-0.9206,-0.931,-0.9362,-0.9444,-0.9501,-0.9548,-0.9599,-0.966,-0.9706,-0.9762,-0.9813,-0.9877,-0.9891,-0.992,-0.9956,-1.0012,-1.0041,-1.001,-1.0092,-1.0094,-1.0071,-1.0095,-1.0083,-1.0118,-1.0093,-1.0094,-1.0094,0,-0.9258,-0.9321,-0.9408,-0.9492,-0.9518,-0.9562,-0.9636,-0.9689,-0.976,-0.9791,-0.9843,-0.9882,-0.9946,-0.9947,-1.0036,-1.0014,-1.005,-1.0083,-1.0086,-1.0096,-1.0095,-1.0106,-1.0131,-1.0136,-1.0104,-1.0103,-1.0103,0,-0.9245,-0.9352,-0.9418,-0.9453,-0.9552,-0.9582,-0.9625,-0.9696,-0.9738,-0.9803,-0.9832,-0.9904,-0.9943,-0.9999,-1.0056,-1.0051,-1.0141,-1.0146,-1.0169,-1.0168,-1.0186,-1.0184,-1.0218,-1.0209,-1.0209,-1.0209,-1.0209,0,-0.9277,-0.9329,-0.9414,-0.9454,-0.9514,-0.9574,-0.9632,-0.9679,-0.9741,-0.9793,-0.9838,-0.9886,-0.9958,-1.0016,-1.0061,-1.0129,-1.0147,-1.0174,-1.0186,-1.0171,-1.0167,-1.0196,-1.0195,-1.021,-1.021,-1.021,-1.0209,0,-0.9273,-0.9332,-0.9407,-0.9495,-0.9518,-0.9558,-0.9634,-0.9676,-0.9723,-0.9788,-0.9807,-0.9883,-0.9952,-1.0015,-1.0108,-1.0138,-1.0208,-1.0222,-1.0183,-1.0189,-1.0209,-1.0206,-1.0262,-1.0273,-1.0256,-1.0256,-1.0256,0,-0.9289,-0.933,-0.9421,-0.9458,-0.95,-0.956,-0.9603,-0.9664,-0.9707,-0.9791,-0.9823,-0.9896,-0.9957,-1.0066,-1.0131,-1.0202,-1.0219,-1.0234,-1.023,-1.0213,-1.022,-1.0217,-1.0221,-1.0233,-1.0233,-1.0233,-1.0233,0,-0.9312,-0.9339,-0.9399,-0.9469,-0.9518,-0.9577,-0.9637,-0.9665,-0.9737,-0.9784,-0.9855,-0.9902,-0.9997,-1.0069,-1.0147,-1.0193,-1.0226,-1.0233,-1.0243,-1.0227,-1.0203,-1.0217,-1.0182,-1.0232,-1.0232,-1.0232,-1.0232,-1.0232,-0.9319,-0.9357,-0.9428,-0.9493,-0.9544,-0.9599,-0.9642,-0.9695,-0.9755,-0.9835,-0.9868,-0.994,-1.0012,-1.012,-1.0166,-1.0225,-1.0231,-1.0244,-1.0247,-1.025,-1.0247,-1.0193,-1.0239,-1.0239,-1.0239,-1.0239,-1.024,0,-0.9344,-0.9392,-0.9451,-0.9533,-0.9584,-0.9608,-0.9676,-0.9718,-0.978,-0.9843,-0.9902,-0.9984,-1.0054,-1.0124,-1.0198,-1.0231,-1.0248,-1.0249,-1.0247,-1.0258,-1.0237,-1.0222,-1.0234,-1.0234,-1.0234,-1.0234,-1.0234,-1.0234,-0.9364,-0.943,-0.9465,-0.9558,-0.9605,-0.9675,-0.9712,-0.9763,-0.9813,-0.9902,-0.996,-1.0004,-1.007,-1.015,-1.0215,-1.0234,-1.026,-1.0256,-1.0279,-1.0259,-1.0259,-1.0259,-1.0245,-1.0261,-1.0261,-1.0295,-1.0295,-1.0296]},{"header":{"parameterUnit":"m.s-1","parameterCategory":1,"la1":30.2991,"la2":30.254,"lo1":-89.0895,"lo2":-89.0444,"dy":0.0017,"dx":0.0017,"nx":28,"ny":28,"refTime":"2023-11-10T09:00:00:Z","depth":0,"parameterNumber":3,"parameterNumberName":"V-component_of_WINDS"},"data":[0,0,0,0,0,0,0,0,0,0,0,0,0,0,0,0,0,0,0,0,0,0,0,0,0,0,0,0,0,0,0,0,0,0,0,0,0,0,0,0,0,0,0,0,0,0,0,0,0,0,0,0,0,0,0,0,0,0,-5.15,-5.1499,0,-5.1461,-5.146,-5.146,-5.1348,-5.1346,-5.1343,-5.1341,-5.1304,-5.1305,-5.1307,0,0,0,0,0,0,0,0,0,0,0,0,0,-5.1481,-5.1482,-5.15,-5.1499,-5.1499,-5.1461,-5.146,-5.146,-5.1349,-5.1346,-5.1343,-5.134,-5.1304,-5.1305,-5.1307,0,0,0,0,0,0,0,0,0,0,0,0,0,-5.147,-5.1482,-5.15,-5.1439,-5.1433,-5.1461,-5.146,-5.146,-5.1349,-5.1346,-5.1342,-5.1339,-5.1303,-5.1305,-5.1307,-5.1392,0,0,-5.1313,-5.1314,0,0,0,0,0,0,0,0,-5.1471,-5.1471,-5.1448,-5.1443,-5.1436,-5.1405,-5.144,-5.1437,-5.135,-5.1381,-5.1341,-5.1337,-5.1341,-5.134,-5.134,-5.139,-5.1389,-5.1313,-5.1314,-5.1315,-5.1316,0,0,0,0,0,0,0,-5.1472,-5.1472,-5.1484,-5.1448,-5.1441,-5.1414,-5.1409,-5.1439,-5.1382,-5.1378,-5.137,-5.1367,-5.1337,-5.1339,-5.1339,-5.1388,-5.1313,-5.1315,-5.1316,-5.1317,-5.1507,-5.1511,0,0,0,0,0,0,-5.1481,-5.1473,-5.1485,-5.1483,-5.1445,-5.1417,-5.1411,-5.1419,-5.1381,-5.1372,-5.137,-5.1362,-5.1337,-5.1337,-5.1337,-5.1435,-5.1315,-5.1317,-5.1318,-5.1503,-5.1508,-5.1512,0,0,0,0,0,0,-5.1481,-5.1483,-5.1487,-5.1476,-5.1474,-5.1422,-5.1431,-5.142,-5.1422,-5.1375,-5.1365,-5.1382,-5.1334,-5.1334,-5.1379,-5.1432,-5.1318,-5.132,-5.1498,-5.1504,-5.151,-5.163,0,0,0,0,0,0,-5.1481,-5.1484,-5.1515,-5.1477,-5.1475,-5.1529,-5.1435,-5.1422,-5.1425,-5.1414,-5.1384,-5.1375,-5.1332,-5.1377,-5.1381,-5.1432,-5.1321,-5.1494,-5.1501,-5.1508,-5.1622,-5.164,-5.1655,0,0,0,0,0,-5.1481,-5.1551,-5.1517,-5.1519,-5.1513,-5.1532,-5.1531,-5.1479,-5.143,-5.1461,-5.1431,-5.1376,-5.1425,-5.1383,-5.1386,-5.1439,-5.149,-5.1499,-5.1507,-5.1614,-5.1636,-5.1655,0,0,0,0,0,0,-5.1596,-5.1545,-5.1507,-5.1567,-5.1555,-5.1514,-5.1551,-5.1504,-5.1507,-5.1496,-5.1432,-5.1426,-5.148,-5.1464,-5.1417,-5.152,-5.1449,-5.1459,-5.1528,-5.1549,-5.1565,-5.1569,-5.1323,0,0,0,0,0,-5.1629,-5.1648,-5.1602,-5.166,-5.1655,-5.1605,-5.1611,-5.1572,-5.1557,-5.1552,-5.1525,-5.1514,-5.1527,-5.1537,-5.1546,-5.1619,-5.1611,-5.1657,-5.1674,-5.1688,-5.1697,-5.1735,-5.1755,-5.1541,-5.1541,-5.154,0,0,-5.1696,-5.167,-5.1686,-5.1682,-5.1668,-5.1691,-5.1601,-5.1629,-5.1645,-5.1556,-5.1597,-5.1578,-5.1561,-5.162,-5.1645,-5.1608,-5.1755,-5.1699,-5.171,-5.1712,-5.1746,-5.1766,-5.1785,-5.1547,-5.1546,-5.1545,0,0,-5.183,-5.1812,-5.1858,-5.1846,-5.1826,-5.1792,-5.1804,-5.177,-5.1753,-5.1792,-5.1727,-5.1746,-5.1769,-5.176,-5.1759,-5.189,-5.184,-5.1895,-5.1983,-5.2021,-5.2038,-5.2053,-5.2101,-5.2118,-5.1905,-5.1905,-5.1905,0,-5.1917,-5.1947,-5.1888,-5.192,-5.192,-5.1841,-5.1888,-5.1879,-5.1864,-5.1866,-5.1825,-5.1853,-5.1836,-5.1893,-5.1925,-5.1926,-5.1938,-5.1899,-5.204,-5.2054,-5.2067,-5.2112,-5.213,-5.1912,-5.1911,-5.1911,-5.191,0,-5.2055,-5.2077,-5.2116,-5.2103,-5.2107,-5.2147,-5.2095,-5.2108,-5.2068,-5.2039,-5.2081,-5.2058,-5.2062,-5.2072,-5.2034,-5.2124,-5.2101,-5.2051,-5.1979,-5.2095,-5.2137,-5.2153,-5.1922,-5.1919,-5.1917,-5.1916,0,0,-5.226,-5.2214,-5.223,-5.2223,-5.2195,-5.2211,-5.2248,-5.225,-5.2262,-5.2255,-5.2284,-5.2306,-5.2259,-5.2258,-5.2218,-5.2251,-5.2358,-5.2197,-5.2196,-5.2228,-5.2457,-5.2495,-5.2516,-5.2325,-5.2328,-5.233,-5.2458,0,-5.2388,-5.2445,-5.2394,-5.2463,-5.2483,-5.2408,-5.2439,-5.2427,-5.2401,-5.2415,-5.2386,-5.2403,-5.234,-5.2338,-5.2368,-5.2339,-5.2403,-5.2329,-5.2353,-5.2354,-5.236,-5.2537,-5.2577,-5.2699,-5.2474,-5.2477,-5.2478,0,-5.2544,-5.2542,-5.2613,-5.2581,-5.2587,-5.2617,-5.2615,-5.2629,-5.2614,-5.2592,-5.2591,-5.2543,-5.2577,-5.2506,-5.2553,-5.2504,-5.251,-5.2498,-5.2502,-5.2502,-5.2424,-5.2543,-5.2737,-5.2756,-5.2503,-5.2501,-5.2499,0,-5.2688,-5.2704,-5.2748,-5.2744,-5.2708,-5.273,-5.2717,-5.2697,-5.2702,-5.2702,-5.2704,-5.2708,-5.2711,-5.2715,-5.267,-5.2622,-5.2723,-5.2648,-5.2707,-5.2709,-5.2732,-5.2732,-5.2931,-5.2736,-5.2736,-5.2736,-5.2735,0,-5.2835,-5.2882,-5.2812,-5.2839,-5.2889,-5.283,-5.2882,-5.286,-5.2844,-5.2866,-5.2802,-5.2825,-5.2763,-5.2779,-5.2744,-5.2789,-5.279,-5.2775,-5.2765,-5.2781,-5.2783,-5.2785,-5.2776,-5.274,-5.2739,-5.2738,-5.2738,0,-5.3005,-5.296,-5.3003,-5.2965,-5.2957,-5.2996,-5.2964,-5.2988,-5.2957,-5.2987,-5.2991,-5.2944,-5.296,-5.2915,-5.2925,-5.2901,-5.2966,-5.2942,-5.2972,-5.2964,-5.3027,-5.3022,-5.3235,-5.326,-5.3049,-5.3051,-5.3053,0,-5.3102,-5.3136,-5.3102,-5.3112,-5.3101,-5.3118,-5.3123,-5.3067,-5.3075,-5.306,-5.3087,-5.3097,-5.3103,-5.3133,-5.3101,-5.3108,-5.3085,-5.3158,-5.3085,-5.3101,-5.3087,-5.3085,-5.3089,-5.3174,-5.3177,-5.3179,-5.318,0,-5.328,-5.3256,-5.3265,-5.3267,-5.3274,-5.3273,-5.3267,-5.3279,-5.3219,-5.3232,-5.3247,-5.3252,-5.3261,-5.3274,-5.3274,-5.3261,-5.3212,-5.3204,-5.3218,-5.3235,-5.3251,-5.3244,-5.3014,-5.3199,-5.3197,-5.3196,-5.3195,-5.3194,-5.3417,-5.3443,-5.3424,-5.3436,-5.3426,-5.3422,-5.3443,-5.3415,-5.3427,-5.343,-5.3396,-5.3419,-5.3404,-5.3399,-5.3391,-5.3409,-5.3375,-5.3396,-5.3401,-5.3407,-5.3418,-5.3247,-5.3409,-5.3408,-5.3408,-5.3407,-5.3407,0,-5.3592,-5.3576,-5.3587,-5.3581,-5.3591,-5.3543,-5.3534,-5.3546,-5.3567,-5.3556,-5.3563,-5.3582,-5.3593,-5.3562,-5.3569,-5.359,-5.3567,-5.3594,-5.3592,-5.359,-5.3447,-5.3435,-5.3612,-5.3612,-5.3612,-5.3612,-5.3612,-5.3611,-5.3684,-5.3727,-5.3701,-5.3739,-5.3722,-5.3743,-5.3743,-5.374,-5.373,-5.3754,-5.3763,-5.3742,-5.3723,-5.3729,-5.3738,-5.3728,-5.3735,-5.3769,-5.3752,-5.362,-5.36,-5.3581,-5.3568,-5.3771,-5.3771,-5.3893,-5.3894,-5.3895]}]]